Location: Arbon
(43.0005°N, 0.7472°E)
Time: 22:26:10
(UTC+00:00)

Altair - Pass Details

Date: 28 November 2020
Orbit: 1501 x 1682 km, 47.2° (Epoch: 26 January)

Event Time Altitude Azimuth Distance (km) Brightness Sun altitude
Rises 18:32:50 0° 195° (SSW) 4,757 10.4 -23.0°
Reaches altitude 10° 18:36:32 10° 184° (S) 3,747 9.7 -23.6°
Maximum altitude 18:44:02 27° 131° (SE) 2,589 8.3 -25.0°
Enters shadow 18:44:19 27° 128° (SE) 2,590 8.3 -25.0°
Drops below altitude 10° 18:51:21 10° 78° (ENE) 3,671 - -26.3°
Sets 18:54:54 0° 67° (ENE) 4,644 - -27.0°
